Location: ???????
(56.2167°N, 38.0500°E)
Time: 01:11:27
(UTC+00:00)

Cosmos 773 Rocket - Pass Details

Date: 19 May 2025
Orbit: 742 x 772 km, 74.1° (Epoch: 13 June)

Event Time Altitude Azimuth Distance (km) Brightness Sun altitude
Exits shadow 20:11:32 - 214° (SW) 2,912 6.6 -12.3°
Reaches altitude 10° 20:13:12 10° 216° (SW) 2,262 6.1 -12.4°
Maximum altitude 20:18:19 72° 301° (WNW) 786 4.2 -12.6°
Drops below altitude 10° 20:23:27 10° 26° (NNE) 2,268 7.2 -12.7°
Sets 20:25:50 0° 29° (NNE) 3,196 8.0 -12.8°
